STARLINK-11477 [DTC] (62471 NORAD) Tracking and Keplerian Element Data

This shows tracking and keplerian element data for the satellite.

Feedback or suggestion? Click here.




ElementValue
Catalog62471
NameSTARLINK-11477 [DTC]
Epoch Orbit659
Epoch Day34.48614446
Epoch Year2025
RAAN110.4246
Inclination42.9968
Eccentricity2.99E-05
Argument of Perigee165.4752
Mean Anonmoly194.6127
Mean Motion15.77848976
Decay Rate7.18E-06
L11 62471U 24254K 25034.48614446 .00000718 00000+0 69833-5 0 9997
L22 62471 42.9968 110.4246 0000299 165.4752 194.6127 15.77848976 6590



Live tracking and technical data element details for STARLINK-11477 [DTC] (NORAD 62471). STARLINK-11477 [DTC] can be tracked NOW for your location showing map with azimuth and elevation plus other details from your city location.







IsCatalogInMostPopularTable: catalog: 62471, numindb: 14
Update: records affected: 1



GetName: 62471 STARLINK-11477 [DTC]

Hit Count: updated at: Sat, 24 May 2025 17:11:57 GMT